GFSSW_2pvu_pres_102.txt.gz
Presure
175 174 170 170 178 143 174 176 152 173 144 172 188 186 156 192 166 166 194 179 146 162 176 112 178 146 152 115 132 162 171 182 186 183 193 126 195 126 188 192 169 125 210 205 112
173 171 165 172 168 173 158 171 179 161 180 129 162 200 147 196 190 189 163 168 192 178 156 145 164 161 148 189 191 155 189 182 165 192 179 198 190 174 164 161 167 101 208 215 205
162 177 192 172 132 171 170 178 154 171 180 195 207 181 183 200 198 188 196 168 154 173 197 186 191 145 130 196 187 187 179 149 179 172 186 177 189 200 204 193 204 211 211 198 128
172 161 162 175 180 168 173 145 164 203 207 123 141 187 202 147 179 186 148 193 151 122 181 194 193 145 187 173 196 197 183 188 197 194 191 191 200 211 189 197 155 206 124 170 144
185 188 187 194 172 212 202 181 192 188 213 182 212 207 203 195 212 180 166 198 183 187 194 193 191 190 138 188 185 185 195 195 185 187 188 159 196 203 189 188 199 210 173 185 205
180 193 189 135 173 187 189 215 204 205 194 196 222 218 200 198 182 209 221 167 188 195 191 200 188 180 188 195 179 194 185 181 189 191 199 172 203 198 181 208 200 206 190 204 165
191 203 153 127 211 202 199 177 198 204 175 192 173 221 177 197 205 184 217 195 202 191 185 169 190 197 190 193 181 180 194 197 193 174 177 197 186 198 186 205 190 191 191 200 208
183 205 203 210 210 168 203 194 169 216 192 192 209 194 208 204 203 210 193 194 201 203 197 178 192 175 170 193 185 195 181 186 180 199 179 171 154 188 185 188 203 211 197 207 205
219 193 221 187 213 209 166 211 226 208 170 213 198 205 171 199 194 195 187 186 186 202 198 197 174 201 195 185 201 194 193 188 183 198 196 194 192 177 195 207 202 200 194 196 202
155 200 161 204 209 173 158 213 190 211 200 210 213 150 205 183 183 185 194 192 198 188 211 192 168 192 171 190 193 193 188 175 200 190 168 198 181 185 188 196 211 208 213 207 207
162 157 162 202 212 177 188 177 160 186 219 185 218 194 158 148 207 166 189 173 205 160 214 188 197 202 204 201 203 195 189 202 195 201 189 177 176 203 200 203 200 208 206 207 217
243 211 133 195 242 177 170 199 226 212 204 175 224 151 156 204 187 159 152 207 203 195 190 201 173 200 151 201 208 213 199 194 202 206 213 197 200 194 210 214 218 177 217 220 207
217 128 174 201 151 218 196 248 157 193 190 254 206 175 213 230 191 192 213 195 186 215 206 198 208 215 191 214 206 216 202 214 207 213 211 184 192 203 216 214 221 217 229 214 232
222 206 202 144 193 197 258 223 236 251 175 203 238 236 238 237 219 207 216 225 159 205 212 211 205 177 208 204 213 214 204 210 204 220 182 223 215 218 221 222 228 226 247 244 244
247 272 212 234 168 276 293 146 255 218 225 310 238 240 169 226 232 221 235 170 209 214 223 191 210 206 209 153 228 209 220 226 217 220 228 226 219 212 205 211 214 234 237 243 107
230 237 253 223 171 227 355 340 152 336 299 190 338 251 280 235 251 175 179 170 197 209 205 200 187 227 228 220 215 212 214 223 228 229 236 224 234 228 114 170 245 199 111 256 272
352 336 336 364 330 317 321 344 325 340 342 172 336 353 240 294 294 245 244 214 216 226 229 213 212 202 210 227 233 231 214 225 238 238 234 231 246 247 230 247 212 100 261 128 271
321 338 335 329 327 323 318 310 313 329 314 311 320 333 327 330 305 231 159 225 226 240 260 235 181 206 210 221 213 150 225 259 252 239 244 255 250 249 262 266 260 272 245 85 273
308 302 328 313 316 315 311 315 311 310 312 319 325 335 318 310 265 217 269 247 305 251 249 258 249 230 202 250 158 265 283 279 249 256 271 270 279 278 268 269 295 294 285 322 422
303 314 297 282 322 341 335 321 314 311 308 301 297 176 287 282 289 289 271 290 282 233 259 265 255 259 253 271 282 276 272 270 271 271 276 281 285 288 287 294 292 298 315 393 338
304 312 307 288 289 288 291 284 286 284 291 295 285 283 276 271 263 268 271 138 205 282 266 265 278 270 263 261 258 259 260 267 269 274 282 294 295 291 284 288 299 303 382 308 292
260 275 270 281 276 277 280 285 277 273 273 269 266 271 265 269 269 272 261 270 263 261 261 255 256 252 255 256 157 253 254 269 284 287 288 287 295 295 296 306 341 390 304 286 279
280 272 272 274 265 277 275 261 261 260 255 261 264 258 259 256 259 253 251 250 247 250 251 250 248 249 253 97 249 275 277 288 232 289 285 200 127 303 335 351 304 297 288 278 266
271 270 266 259 284 263 268 264 263 261 269 264 261 252 253 249 251 241 246 247 243 243 246 245 245 250 259 280 279 277 285 291 308 296 300 356 359 341 343 359 315 279 278 266 254
272 262 261 249 262 252 250 252 251 249 248 243 248 244 248 248 246 244 239 238 239 241 246 252 253 266 276 282 282 300 305 290 320 351 339 317 395 335 336 342 278 270 270 265 253
268 256 264 252 256 245 245 246 239 241 237 245 241 238 232 234 235 237 243 246 239 243 277 261 277 280 288 300 298 314 311 324 326 414 431 406 421 320 356 291 273 266 257 259 253
261 249 256 239 241 240 236 240 243 235 234 242 236 236 230 234 240 241 244 242 249 273 270 280 277 294 285 302 318 304 329 395 390 392 398 434 379 338 305 281 265 263 256 261 253

GFSSW_2pvu_pres_105.txt.gz
Presure
172 176 171 160 198 186 185 174 186 163 168 179 182 184 180 170 185 185 183 192 155 176 184 130 192 188 187 166 186 164 123 150 177 188 170 154 162 182 172 184 180 204 194 158 183
180 172 174 172 189 170 174 143 168 166 185 154 184 184 150 177 182 197 175 159 176 199 190 187 172 191 147 182 177 148 183 137 185 185 155 193 127 197 192 167 176 176 171 201 123
172 167 180 184 163 169 178 142 173 174 157 177 173 157 180 166 158 190 190 190 203 157 197 184 201 187 182 169 155 136 186 118 179 187 190 185 181 198 194 186 179 181 171 202 208
176 175 156 187 199 185 181 186 182 156 182 172 141 177 170 182 175 183 140 138 146 141 207 193 182 187 193 189 191 151 186 178 112 178 183 195 198 201 204 196 197 195 196 203 194
185 180 200 124 187 194 183 164 184 167 172 203 197 176 172 171 193 220 188 174 200 201 205 162 202 202 175 192 192 181 193 168 189 170 178 167 188 195 174 187 197 194 185 193 199
171 195 176 180 201 193 196 182 194 199 158 200 206 159 126 205 204 171 197 219 185 207 180 200 187 194 145 183 199 202 190 200 186 190 190 195 183 182 192 196 185 186 189 191 194
179 185 179 181 199 189 178 173 192 197 185 180 127 206 187 203 205 216 206 206 214 184 210 212 199 191 180 197 185 190 189 179 186 188 188 189 189 191 189 188 174 169 183 174 195
178 193 174 190 183 173 195 197 196 193 201 193 193 195 196 209 201 204 203 215 194 192 186 196 169 200 191 202 192 179 191 193 193 190 192 179 177 177 188 178 182 188 174 186 186
182 180 180 187 190 197 204 205 202 218 178 194 182 197 152 200 192 199 174 173 207 218 187 163 176 215 175 181 202 200 181 187 186 189 178 189 184 188 188 190 183 180 187 199 185
192 191 205 125 216 204 205 194 225 183 205 209 210 155 193 162 179 198 212 212 183 216 205 209 203 182 187 207 168 203 207 192 191 191 199 187 185 186 190 187 202 187 181 189 206
193 190 196 195 145 189 191 202 195 172 206 204 166 247 160 139 214 226 221 188 137 225 219 185 205 211 169 195 184 213 201 211 198 194 196 183 185 184 200 184 188 199 194 208 177
197 187 184 196 217 187 191 191 134 201 215 200 216 192 163 199 142 163 241 236 187 178 205 198 211 191 207 206 197 201 204 195 206 196 214 190 189 209 202 192 198 203 199 192 191
194 183 189 171 198 210 205 170 218 182 171 157 233 220 197 220 211 159 203 183 240 247 138 201 192 212 203 203 206 197 183 186 209 212 216 199 203 196 198 213 203 201 203 205 217
209 190 195 147 150 209 213 141 224 159 181 248 210 150 244 242 191 222 129 202 265 198 181 245 207 192 209 199 201 202 219 197 221 210 202 204 181 207 190 216 203 212 224 203 181
187 202 189 198 231 140 235 229 246 236 222 261 237 206 155 300 164 159 144 281 293 232 220 241 214 165 233 213 217 218 220 172 210 223 193 192 202 197 206 213 219 209 214 232 236
230 207 230 144 230 241 243 240 201 176 208 261 327 359 347 168 378 369 234 354 134 215 303 265 274 232 208 204 204 222 225 199 215 218 225 219 225 216 130 178 81 225 226 229 248
227 253 246 267 256 243 230 212 220 349 356 366 338 319 344 350 340 335 348 337 316 185 231 233 235 228 221 232 217 227 231 236 229 223 201 211 218 210 225 227 228 225 225 269 100
239 245 251 268 234 288 344 340 343 338 316 321 308 319 337 309 277 300 323 326 343 354 326 329 332 260 231 234 220 207 230 219 224 233 226 218 218 198 231 238 260 281 105 118 239
298 344 327 336 341 323 328 326 321 313 310 312 306 318 300 297 292 295 310 300 299 305 300 296 232 229 293 289 248 262 221 231 263 250 258 257 148 237 277 282 274 272 271 281 123
322 317 324 332 325 315 310 342 290 304 313 304 313 312 302 303 305 324 323 308 315 287 284 265 287 279 281 289 239 231 258 257 243 272 253 246 267 279 280 277 270 271 277 282 291
310 287 310 323 306 310 294 290 299 319 312 311 308 301 291 292 277 282 291 282 277 271 179 266 270 273 275 245 246 272 271 272 277 276 250 274 274 271 270 269 269 288 299 299 297
264 274 289 315 313 304 286 300 299 299 303 280 290 282 275 266 271 273 274 272 276 265 261 264 264 257 261 273 266 267 267 266 263 263 100 269 221 274 283 281 296 293 291 299 297
273 267 283 274 276 279 280 280 262 285 284 277 278 275 264 263 259 257 251 254 259 259 256 262 264 260 261 261 259 257 256 261 263 267 264 190 282 292 129 254 302 313 300 325 384
293 293 295 256 275 256 274 253 281 279 264 277 268 263 260 261 256 257 259 258 259 256 253 253 256 254 252 253 254 253 258 258 197 264 179 293 293 295 314 262 307 340 353 355 303
282 297 276 271 263 275 273 272 253 270 263 252 256 257 263 258 257 253 252 248 252 245 243 248 248 249 248 251 250 249 255 263 221 284 319 320 319 325 342 349 323 330 343 300 292
290 253 268 288 271 272 269 259 257 263 258 252 247 242 243 249 244 239 249 248 243 246 246 242 238 238 244 253 248 254 259 281 293 306 338 341 310 321 342 386 337 359 321 288 281
271 257 256 274 266 264 262 250 252 248 244 242 239 239 246 239 239 239 237 234 237 242 239 246 250 254 250 258 268 284 288 315 318 325 330 417 416 394 418 429 345 298 289 276 267

GFSSW_2pvu_pres_108.txt.gz
Presure
147 171 133 183 158 165 170 178 178 183 177 179 178 160 188 190 182 186 182 174 174 182 174 184 188 184 190 155 185 177 184 125 183 174 147 185 139 138 189 184 192 172 194 124 186
180 178 182 154 157 142 176 181 190 188 172 175 199 165 181 190 183 181 169 178 167 166 175 180 186 171 185 144 134 155 171 192 183 176 182 173 158 191 186 187 127 178 182 193 168
176 176 181 184 160 174 174 184 184 163 182 185 199 181 194 183 180 180 176 185 193 198 191 179 153 177 190 184 181 178 140 148 189 180 144 183 138 137 190 163 189 194 193 152 187
173 176 157 161 175 179 185 164 177 174 193 208 180 179 192 180 187 185 184 189 194 187 136 199 203 144 201 195 161 152 158 197 158 189 187 174 153 189 141 187 152 177 190 195 197
165 168 153 173 170 190 158 155 174 181 177 209 179 203 200 186 194 174 187 187 190 172 140 201 171 151 186 206 209 192 193 190 195 194 178 191 177 184 185 142 179 176 174 185 190
154 178 171 168 149 171 175 172 179 175 191 190 173 199 185 196 190 195 191 189 207 162 209 194 207 217 166 213 207 213 192 180 154 196 189 182 188 188 179 168 185 178 180 181 187
171 174 175 165 151 183 160 196 188 195 213 205 172 168 183 187 183 202 151 203 211 229 184 220 131 206 210 216 200 196 200 173 202 194 191 182 186 185 192 174 188 188 191 191 189
182 172 164 185 179 187 179 184 190 196 194 193 187 196 197 198 201 202 211 183 219 224 208 192 189 202 201 207 186 165 164 198 195 172 189 187 182 194 189 191 183 190 168 189 190
190 186 189 185 197 190 172 196 194 192 172 147 197 201 203 188 195 186 199 201 192 210 196 222 181 214 202 189 191 213 204 206 205 182 199 190 176 191 189 186 187 186 194 195 189
176 194 180 186 190 196 202 203 192 146 147 152 184 186 208 213 213 193 170 202 199 204 211 228 198 198 216 189 218 201 207 180 219 188 196 176 183 206 186 189 194 189 186 185 180
202 189 175 202 195 162 195 162 138 196 187 213 208 217 132 173 139 197 210 220 177 207 205 141 191 202 204 233 183 216 180 205 175 209 181 214 206 206 189 185 190 190 195 190 189
209 194 191 178 164 175 179 204 213 210 180 192 208 175 208 195 134 175 188 200 195 214 184 160 168 167 153 199 233 200 220 184 208 202 196 178 188 210 204 199 201 200 196 192 191
189 189 186 194 196 205 211 197 209 192 205 207 198 154 210 171 178 192 214 199 180 192 191 231 171 232 137 192 186 187 229 188 202 190 196 181 209 183 190 203 204 184 201 182 189
153 194 172 177 160 195 183 193 219 156 212 117 220 226 203 234 193 210 236 241 174 238 224 155 153 180 245 228 272 233 182 212 206 195 187 231 198 207 167 198 205 200 207 200 201
142 176 189 169 168 191 200 220 200 161 207 197 221 251 180 223 251 256 278 177 228 240 251 237 343 354 328 292 156 202 235 187 160 246 195 191 199 203 191 204 201 194 200 212 205
188 200 196 151 206 186 192 212 175 187 235 211 232 232 270 235 184 276 264 311 291 244 279 301 216 132 339 208 300 259 281 183 227 234 189 192 219 211 163 87 207 220 188 206 79
187 174 194 207 218 233 202 226 234 245 247 265 233 256 319 253 381 209 330 314 344 341 338 336 331 230 340 324 317 216 306 282 229 230 187 244 221 227 218 219 227 222 133 166 226
206 223 224 257 258 239 219 243 256 258 241 249 361 352 339 332 132 156 330 321 293 309 306 307 314 312 293 319 332 335 327 249 236 314 293 283 240 243 224 234 229 234 235 229 240
251 243 249 242 254 265 284 309 309 361 348 336 334 330 319 319 315 314 306 298 294 295 292 311 302 315 320 301 301 182 298 296 257 241 241 240 231 224 238 229 218 223 232 233 270
258 262 260 265 280 271 326 333 342 327 323 317 316 303 301 320 307 309 295 286 285 287 289 293 286 279 292 290 286 209 236 248 231 250 281 240 235 175 235 232 261 231 241 277 271
277 277 288 331 291 314 316 329 317 309 304 308 299 311 330 302 307 315 297 296 296 307 321 289 298 277 273 258 268 271 277 272 264 272 272 229 280 259 238 181 255 269 276 281 278
335 339 336 298 287 315 305 302 316 298 293 300 307 299 305 291 288 291 282 286 281 284 277 286 271 269 271 268 264 260 259 261 265 270 268 267 268 268 219 268 267 272 273 275 271
300 296 302 292 288 279 277 309 271 300 293 297 287 295 291 295 296 290 274 275 285 272 266 262 260 261 259 257 254 253 257 256 259 271 273 266 265 262 264 270 270 268 267 277 303
302 288 298 286 269 275 291 257 282 282 282 272 289 283 283 284 269 267 269 268 257 257 259 256 251 245 249 252 253 257 258 260 264 263 259 258 170 267 267 270 275 283 301 259 317
274 290 276 281 269 273 270 279 266 276 272 254 267 272 264 274 261 265 258 261 253 250 247 254 259 262 258 253 249 252 253 254 255 256 189 258 87 252 271 288 290 304 348 340 355
284 286 293 280 281 285 280 261 271 280 262 271 257 269 269 255 260 260 269 260 259 259 252 247 248 247 246 248 249 253 253 251 250 252 264 260 264 278 312 291 335 320 314 329 334
294 284 287 281 263 285 270 256 272 275 258 253 254 254 249 243 243 258 256 250 247 245 247 248 247 246 245 246 244 244 248 256 260 264 271 286 307 333 329 368 420 450 377 327 327

GFSSW_2pvu_pres_114.txt.gz
Presure
158 158 163 148 166 137 166 167 160 164 171 170 169 165 173 172 184 183 175 183 171 180 187 177 191 179 186 192 185 182 167 176 171 171 179 171 178 178 166 175 116 167 178 145 185
172 165 168 167 167 154 165 170 180 169 168 176 174 171 179 179 175 181 168 126 177 175 180 182 174 156 186 196 183 181 166 174 167 173 170 172 171 177 178 147 167 160 178 181 175
172 165 169 169 160 162 172 185 182 173 169 155 161 178 185 175 178 170 165 180 181 183 178 176 157 179 188 202 178 192 185 163 175 184 181 168 152 177 158 166 165 181 177 188 172
180 181 183 180 183 171 175 180 186 178 174 170 184 176 171 185 187 176 181 172 174 173 174 166 173 178 184 196 157 124 201 200 184 172 143 167 144 219 200 166 161 181 168 178 186
182 174 182 168 182 181 177 174 155 181 178 176 174 174 174 184 177 158 165 172 174 181 180 174 166 178 187 196 202 183 169 197 193 205 191 203 199 152 209 187 222 209 176 192 195
172 178 188 179 181 178 179 178 178 181 174 162 169 182 178 171 177 148 171 175 167 180 184 179 186 178 185 198 184 200 200 186 189 189 208 133 192 132 197 142 204 178 153 194 193
180 190 182 179 178 172 181 179 174 173 171 174 187 187 174 179 179 171 184 175 182 181 187 159 187 200 182 173 189 183 192 194 187 208 205 191 218 190 200 212 218 191 200 198 200
171 176 169 172 150 182 176 174 174 177 175 177 180 174 172 173 174 182 179 174 181 189 181 184 173 189 189 194 191 185 202 201 194 197 205 209 210 193 200 214 198 217 205 207 192
175 173 191 174 167 182 178 137 179 159 180 177 150 152 161 174 184 186 188 191 192 182 199 197 198 170 205 199 199 195 211 201 170 209 203 186 180 197 201 169 199 234 184 195 212
167 166 169 182 163 167 191 194 185 194 155 188 179 135 182 188 176 181 183 176 186 191 191 201 207 205 203 212 215 214 209 221 214 201 198 186 212 201 201 210 199 208 200 203 205
181 122 164 157 158 190 192 186 190 191 183 188 199 188 181 188 185 156 194 197 201 199 195 208 205 197 202 175 182 188 196 204 201 204 198 178 197 212 192 211 205 215 189 209 217
152 161 196 171 211 190 167 170 211 201 190 203 196 191 190 193 169 156 179 216 166 208 143 214 204 196 171 187 191 188 196 174 173 180 202 184 199 198 235 195 176 184 193 232 188
180 124 174 181 137 174 179 184 182 192 206 189 188 195 160 192 154 190 205 206 194 176 174 204 178 182 174 196 195 167 196 208 203 183 173 194 236 241 195 203 188 229 202 140 228
190 166 173 164 194 178 187 174 199 192 197 194 163 187 138 198 185 167 186 211 186 173 163 193 185 207 133 175 174 183 144 239 170 190 237 253 180 181 150 217 261 238 178 206 236
171 181 172 181 184 195 172 187 201 189 216 156 163 189 191 191 185 187 225 185 186 181 163 226 219 176 202 245 172 155 239 154 181 338 219 344 346 397 299 231 174 269 171 298 203
182 174 190 201 191 195 178 201 207 185 201 166 199 195 173 177 180 182 184 187 171 204 182 230 231 238 238 250 253 322 371 198 364 209 340 142 183 245 319 100 276 316 276 294 267
202 200 189 202 180 186 210 199 178 170 171 204 147 168 207 202 191 191 185 204 213 222 231 237 258 250 256 301 279 333 327 339 354 341 321 194 217 320 79 247 150 179 299 192 245
154 218 191 158 199 197 194 199 194 174 150 186 195 226 178 188 206 222 233 221 225 241 274 301 315 322 334 209 316 327 316 305 288 325 146 297 301 300 315 282 174 273 116 89 99
207 187 228 193 197 197 189 163 214 177 189 185 180 207 215 216 191 233 230 234 265 288 331 336 340 127 317 311 311 290 296 296 276 294 312 283 274 166 246 265 280 275 284 281 288
201 191 228 206 195 188 208 204 176 198 220 207 220 221 223 224 230 228 243 267 287 336 135 316 313 304 310 305 293 294 293 278 278 283 293 302 282 278 267 266 277 286 285 282 284
235 210 218 237 220 221 221 236 231 222 211 218 221 214 221 239 231 258 262 321 331 312 311 311 317 319 307 301 286 282 279 278 271 283 294 287 274 274 275 275 274 283 281 283 283
241 231 222 233 213 228 236 230 223 251 231 219 223 264 244 260 268 297 317 315 309 307 302 304 299 307 308 305 294 284 287 301 279 272 275 277 285 268 271 271 268 269 271 269 271
268 260 244 251 237 238 238 237 230 237 237 275 281 282 271 320 290 301 298 311 297 293 292 287 286 294 289 303 296 301 280 268 259 262 259 265 261 263 261 265 263 263 258 256 261
289 271 277 263 282 263 265 267 283 270 276 278 276 259 306 304 294 298 300 293 292 301 290 283 278 275 279 274 288 276 262 261 258 263 254 253 254 256 255 255 254 253 248 251 257
267 302 275 277 279 274 278 271 276 262 265 256 302 307 291 282 273 277 287 283 278 265 258 262 259 257 260 262 257 256 254 255 256 256 256 255 254 250 243 227 250 250 252 259 257
322 193 334 319 337 263 308 352 333 333 316 298 301 284 283 289 271 284 275 272 260 269 261 250 247 250 254 254 252 243 246 248 246 247 247 245 249 248 248 251 258 257 255 256 255
353 352 334 341 329 324 290 307 282 271 297 289 274 271 271 270 272 273 257 268 264 262 246 249 256 250 251 250 245 244 237 244 250 254 256 250 252 66 254 255 256 256 262 264 264

GFSSW_2pvu_pres_117.txt.gz
Presure
166 146 166 168 151 169 164 172 169 168 168 168 140 163 163 155 166 162 169 169 175 174 169 181 169 175 187 194 177 190 167 165 199 184 189 187 163 175 180 168 170 170 179 171 151
172 161 173 163 182 167 162 169 165 164 163 168 167 166 163 171 187 173 173 139 166 184 180 180 186 186 178 163 174 160 180 164 156 182 173 208 174 180 178 167 167 118 164 169 191
170 183 178 180 176 166 174 158 167 165 163 164 129 169 168 171 177 186 179 173 181 187 174 180 171 182 180 181 185 179 184 157 182 184 151 211 207 191 187 172 186 187 149 177 165
170 167 168 180 169 178 166 185 179 185 182 170 176 170 181 177 174 186 181 174 175 171 177 168 180 179 179 175 179 183 187 162 169 184 209 208 183 215 199 198 181 182 160 162 174
188 185 175 168 181 169 178 178 169 178 186 178 185 170 176 174 184 183 186 179 174 174 175 183 184 132 168 181 173 176 182 187 183 173 185 189 199 178 172 191 200 202 241 211 195
173 181 178 184 170 181 179 189 142 176 166 181 178 182 186 171 181 177 190 181 176 179 178 190 176 178 181 181 184 186 171 184 171 183 181 196 193 205 179 195 209 209 198 216 193
174 179 174 199 194 172 179 172 180 178 173 191 191 183 176 184 179 166 173 171 181 168 181 181 180 180 181 184 174 184 187 179 186 195 195 174 197 209 198 198 182 218 201 184 209
181 172 178 181 174 185 185 175 182 170 178 170 176 174 169 170 175 176 177 175 181 173 176 176 183 181 179 189 159 194 191 188 193 189 207 208 198 190 214 222 210 220 208 207 194
177 180 176 178 175 186 184 171 184 179 176 182 184 162 164 151 159 185 158 184 191 181 183 184 185 190 186 195 201 182 202 209 217 203 194 202 209 199 208 204 203 190 184 193 192
165 160 177 171 181 180 176 176 180 186 183 165 185 166 183 184 181 181 184 180 184 189 188 189 194 196 187 193 217 194 214 209 206 219 219 209 206 216 183 194 193 174 204 205 204
181 177 184 185 181 177 178 179 171 142 181 180 188 186 180 180 182 176 189 183 193 197 195 194 199 200 187 194 193 210 206 190 197 198 207 219 184 179 191 190 190 211 200 188 203
190 186 179 181 123 158 184 189 180 186 148 187 181 215 187 192 173 182 176 202 199 182 198 200 192 189 189 194 206 193 201 200 195 170 191 182 178 176 162 198 211 191 207 186 210
185 180 185 186 171 182 188 186 183 185 172 200 180 160 163 180 213 179 181 185 183 187 195 189 185 199 195 184 198 204 185 179 180 182 182 200 208 220 206 196 202 211 149 226 255
189 190 196 197 202 211 192 178 190 189 183 166 182 189 182 185 189 193 197 190 188 196 195 152 200 189 174 192 186 183 184 197 182 174 184 203 270 269 159 254 260 148 209 160 168
198 201 199 214 203 202 196 201 200 144 165 193 160 150 173 177 177 193 191 200 203 162 204 213 197 199 156 162 191 195 169 159 167 177 298 239 182 303 337 396 368 341 148 256 317
213 210 213 204 200 197 195 200 205 184 188 200 160 152 132 175 178 201 194 197 201 199 198 206 213 204 205 220 197 199 205 227 257 341 374 181 279 217 80 95 357 342 172 156 157
196 212 207 214 199 205 212 203 199 207 200 70 203 198 205 193 128 201 201 168 168 202 192 197 211 183 190 216 220 240 264 291 370 344 318 257 225 224 216 295 307 215 187 174 252
207 216 208 209 211 209 199 202 195 198 184 206 201 199 216 206 198 187 197 203 203 103 197 203 228 212 224 226 237 262 350 352 325 328 326 291 316 337 272 263 99 141 218 134 299
204 216 201 209 185 196 191 206 214 199 189 205 179 182 199 216 209 189 198 206 199 195 197 213 223 225 230 236 279 327 315 310 312 306 303 295 293 286 258 242 262 250 265 160 289
223 223 210 223 204 221 214 226 210 211 202 198 224 211 194 191 186 226 212 211 229 233 231 235 245 242 300 308 326 327 327 310 298 300 294 294 282 291 263 252 249 274 249 254 245
233 231 231 228 226 218 201 237 209 199 194 217 191 189 221 195 218 228 233 233 234 224 235 236 330 317 323 323 324 313 310 308 297 297 291 281 281 280 283 264 252 259 252 258 272
248 247 235 235 237 217 240 239 205 209 219 222 224 230 235 205 222 205 218 230 239 222 289 277 301 316 301 302 301 301 302 311 297 294 276 290 292 284 285 298 294 288 283 290 260
288 258 259 249 256 251 253 254 246 241 240 240 246 242 234 227 226 232 233 241 291 292 269 305 304 300 299 302 293 300 286 288 293 294 276 275 270 263 270 276 290 288 278 259 251
283 283 313 291 290 322 292 293 274 256 271 260 266 256 236 242 259 261 278 317 257 275 298 296 302 298 288 284 282 279 283 282 284 276 266 258 267 260 260 262 263 260 256 248 246
337 350 306 261 259 254 262 282 287 295 287 273 283 274 264 262 302 287 273 257 282 290 279 299 288 279 271 272 266 260 259 255 258 258 259 250 261 250 255 250 246 247 244 247 250
386 366 350 351 359 335 298 266 247 249 241 288 287 274 272 277 255 241 300 294 282 284 288 283 271 267 264 259 256 258 252 251 246 244 247 248 248 250 252 254 250 253 253 254 250
355 382 358 343 344 338 328 328 313 275 242 245 273 243 250 256 321 315 289 276 264 272 273 281 267 255 250 256 256 256 251 249 245 247 244 237 243 245 249 250 253 250 250 253 259